• în România
  • Lista ţărilor
  • Pe 7 zile
  • Temperatura apei
  • Hartă satelitară
  • Meteo pe hartă
  • Widget-uri
  • user-avatar
    Intrare

    Meteo pe oră la San Carlos

    Astăzi, 27 Mai, Duminică

    Timp Temperatura Precipitaţii Vânt Presiune Umiditate
    00:00 +26°C° 0 mm 1 m/s 744 mmHg 88%
    01:00 +26°C° 0 mm 1 m/s 744 mmHg 88%
    02:00 +26°C° 0 mm 1 m/s 744 mmHg 88%
    03:00 +25°C° 0 mm 1 m/s 744 mmHg 88%
    04:00 +25°C° 0 mm 1 m/s 744 mmHg 89%
    05:00 +26°C° 0 mm 1 m/s 745 mmHg 84%
    06:00 +27°C° 0 mm 2 m/s 745 mmHg 80%
    07:00 +28°C° 0 mm 2 m/s 745 mmHg 76%
    08:00 +29°C° 0,1 mm 2 m/s 746 mmHg 71%
    09:00 +31°C° 0,1 mm 3 m/s 746 mmHg 67%
    10:00 +33°C° 0,1 mm 3 m/s 746 mmHg 62%
    11:00 +33°C° 1,2 mm 3 m/s 745 mmHg 64%
    12:00 +33°C° 1,2 mm 3 m/s 745 mmHg 66%
    13:00 +34°C° 1,2 mm 2 m/s 744 mmHg 67%
    14:00 +32°C° 0,8 mm 2 m/s 744 mmHg 68%
    15:00 +32°C° 0,8 mm 1 m/s 743 mmHg 69%
    16:00 +32°C° 0,8 mm 1 m/s 743 mmHg 70%
    17:00 +30°C° 0,6 mm 1 m/s 743 mmHg 76%
    18:00 +29°C° 0,6 mm 1 m/s 744 mmHg 82%
    19:00 +25°C° 0,6 mm 0 m/s 744 mmHg 88%
    20:00 +27°C° 0 mm 1 m/s 744 mmHg 89%
    21:00 +26°C° 0 mm 1 m/s 745 mmHg 89%
    22:00 +26°C° 0 mm 1 m/s 745 mmHg 90%
    23:00 +26°C° 0 mm 1 m/s 745 mmHg 90%

    Mâine, 28 Mai, Luni

    Timp Temperatura Precipitaţii Vânt Presiune Umiditate
    00:00 +26°C° 0 mm 1 m/s 745 mmHg 90%
    01:00 +26°C° 0 mm 1 m/s 744 mmHg 90%
    02:00 +26°C° 0,1 mm 1 m/s 744 mmHg 89%
    03:00 +26°C° 0,1 mm 1 m/s 744 mmHg 89%
    04:00 +26°C° 0,1 mm 1 m/s 744 mmHg 89%
    05:00 +26°C° 0,2 mm 1 m/s 745 mmHg 87%
    06:00 +27°C° 0,2 mm 2 m/s 745 mmHg 85%
    07:00 +27°C° 0,2 mm 2 m/s 746 mmHg 84%
    08:00 +28°C° 0,4 mm 3 m/s 746 mmHg 79%
    09:00 +30°C° 0,4 mm 3 m/s 746 mmHg 74%
    10:00 +31°C° 0,4 mm 3 m/s 747 mmHg 69%
    11:00 +31°C° 0,5 mm 3 m/s 746 mmHg 67%
    12:00 +33°C° 0,5 mm 3 m/s 745 mmHg 65%
    13:00 +34°C° 0,5 mm 2 m/s 745 mmHg 63%
    14:00 +32°C° 0,6 mm 2 m/s 744 mmHg 66%
    15:00 +31°C° 0,6 mm 2 m/s 744 mmHg 69%
    16:00 +31°C° 0,6 mm 2 m/s 743 mmHg 72%
    17:00 +29°C° 0,3 mm 1 m/s 744 mmHg 79%
    18:00 +28°C° 0,3 mm 1 m/s 744 mmHg 85%
    19:00 +26°C° 0,3 mm 1 m/s 745 mmHg 92%
    20:00 +26°C° 0,1 mm 1 m/s 745 mmHg 93%
    21:00 +26°C° 0,1 mm 1 m/s 746 mmHg 93%
    22:00 +25°C° 0,1 mm 1 m/s 746 mmHg 93%
    23:00 +25°C° 0,1 mm 1 m/s 746 mmHg 93%

    Poimâine, 29 Mai, Marţi

    Timp Temperatura Precipitaţii Vânt Presiune Umiditate
    00:00 +25°C° 0,1 mm 1 m/s 745 mmHg 93%
    01:00 +23°C° 0,1 mm 0 m/s 745 mmHg 93%
    02:00 +23°C° 0 mm 0 m/s 745 mmHg 92%
    03:00 +25°C° 0 mm 1 m/s 745 mmHg 92%
    04:00 +25°C° 0 mm 1 m/s 745 mmHg 91%
    05:00 +25°C° 0,1 mm 1 m/s 745 mmHg 88%
    06:00 +26°C° 0,1 mm 1 m/s 746 mmHg 85%
    07:00 +27°C° 0,1 mm 1 m/s 746 mmHg 83%
    08:00 +28°C° 0,3 mm 2 m/s 746 mmHg 78%
    09:00 +30°C° 0,3 mm 2 m/s 746 mmHg 73%
    10:00 +31°C° 0,3 mm 3 m/s 747 mmHg 67%
    11:00 +32°C° 0,4 mm 2 m/s 746 mmHg 64%
    12:00 +32°C° 0,4 mm 2 m/s 745 mmHg 61%
    13:00 +34°C° 0,4 mm 2 m/s 745 mmHg 58%
    14:00 +34°C° 0,2 mm 2 m/s 744 mmHg 61%
    15:00 +32°C° 0,2 mm 2 m/s 744 mmHg 64%
    16:00 +32°C° 0,2 mm 2 m/s 743 mmHg 66%
    17:00 +30°C° 0,1 mm 1 m/s 743 mmHg 74%
    18:00 +28°C° 0,1 mm 1 m/s 744 mmHg 82%
    19:00 +27°C° 0,1 mm 1 m/s 744 mmHg 90%
    20:00 +26°C° 0 mm 1 m/s 745 mmHg 91%
    21:00 +26°C° 0 mm 1 m/s 745 mmHg 91%
    22:00 +26°C° 0 mm 1 m/s 746 mmHg 92%
    23:00 +25°C° 0,1 mm 1 m/s 745 mmHg 92%

    30 Mai, Miercuri

    Timp Temperatura Precipitaţii Vânt Presiune Umiditate
    00:00 +25°C° 0,1 mm 1 m/s 745 mmHg 91%
    01:00 +25°C° 0,1 mm 1 m/s 745 mmHg 91%
    02:00 +25°C° 0,1 mm 1 m/s 745 mmHg 91%
    03:00 +25°C° 0,1 mm 1 m/s 745 mmHg 91%
    04:00 +23°C° 0,1 mm 0 m/s 745 mmHg 91%
    05:00 +26°C° 0,1 mm 1 m/s 745 mmHg 88%
    06:00 +26°C° 0,1 mm 1 m/s 746 mmHg 86%
    07:00 +27°C° 0,1 mm 1 m/s 746 mmHg 83%
    08:00 +29°C° 0,1 mm 1 m/s 746 mmHg 76%
    09:00 +30°C° 0,1 mm 2 m/s 746 mmHg 68%
    10:00 +32°C° 0,1 mm 2 m/s 746 mmHg 61%
    11:00 +34°C° 0,3 mm 2 m/s 745 mmHg 58%
    12:00 +34°C° 0,3 mm 2 m/s 744 mmHg 56%
    13:00 +35°C° 0,3 mm 2 m/s 744 mmHg 53%
    14:00 +35°C° 0,2 mm 2 m/s 743 mmHg 54%
    15:00 +35°C° 0,2 mm 2 m/s 743 mmHg 55%
    16:00 +34°C° 0,2 mm 2 m/s 742 mmHg 56%
    17:00 +31°C° 0 mm 1 m/s 743 mmHg 65%
    18:00 +29°C° 0 mm 1 m/s 743 mmHg 74%
    19:00 +27°C° 0 mm 1 m/s 744 mmHg 83%
    20:00 +27°C° 0 mm 1 m/s 744 mmHg 84%
    21:00 +26°C° 0 mm 1 m/s 744 mmHg 86%
    22:00 +26°C° 0 mm 1 m/s 745 mmHg 88%
    23:00 +26°C° 0 mm 1 m/s 745 mmHg 87%

    31 Mai, Joi

    Timp Temperatura Precipitaţii Vânt Presiune Umiditate
    00:00 +26°C° 0 mm 1 m/s 744 mmHg 87%
    01:00 +25°C° 0 mm 1 m/s 744 mmHg 87%
    02:00 +25°C° 0 mm 1 m/s 744 mmHg 87%
    03:00 +25°C° 0 mm 1 m/s 744 mmHg 87%
    04:00 +25°C° 0 mm 1 m/s 744 mmHg 87%
    05:00 +26°C° 0 mm 1 m/s 745 mmHg 84%
    06:00 +27°C° 0 mm 1 m/s 745 mmHg 80%
    07:00 +28°C° 0 mm 1 m/s 746 mmHg 77%
    08:00 +29°C° 0 mm 2 m/s 746 mmHg 69%
    09:00 +31°C° 0 mm 2 m/s 746 mmHg 62%
    10:00 +34°C° 0 mm 2 m/s 746 mmHg 55%
    11:00 +35°C° 0 mm 2 m/s 745 mmHg 51%
    12:00 +35°C° 0 mm 2 m/s 744 mmHg 48%
    13:00 +36°C° 0 mm 2 m/s 744 mmHg 45%
    14:00 +36°C° 0 mm 2 m/s 743 mmHg 47%
    15:00 +35°C° 0 mm 2 m/s 743 mmHg 49%
    16:00 +35°C° 0 mm 2 m/s 743 mmHg 51%
    17:00 +32°C° 0 mm 1 m/s 743 mmHg 59%
    18:00 +30°C° 0 mm 1 m/s 744 mmHg 68%
    19:00 +28°C° 0 mm 1 m/s 744 mmHg 76%
    20:00 +27°C° 0 mm 1 m/s 744 mmHg 78%
    21:00 +27°C° 0 mm 1 m/s 744 mmHg 80%
    22:00 +26°C° 0 mm 1 m/s 745 mmHg 82%
    23:00 +26°C° 0 mm 1 m/s 744 mmHg 83%

    1 Iunie, Vineri

    Timp Temperatura Precipitaţii Vânt Presiune Umiditate
    00:00 +26°C° 0 mm 1 m/s 744 mmHg 83%
    01:00 +26°C° 0 mm 1 m/s 743 mmHg 84%
    02:00 +26°C° 0 mm 1 m/s 744 mmHg 84%
    03:00 +26°C° 0 mm 1 m/s 744 mmHg 84%
    04:00 +26°C° 0 mm 1 m/s 744 mmHg 85%
    05:00 +26°C° 0,1 mm 1 m/s 744 mmHg 83%
    06:00 +27°C° 0,1 mm 1 m/s 745 mmHg 81%
    07:00 +27°C° 0,1 mm 1 m/s 745 mmHg 79%
    08:00 +28°C° 0,2 mm 1 m/s 746 mmHg 75%
    09:00 +29°C° 0,2 mm 2 m/s 746 mmHg 72%
    10:00 +30°C° 0,2 mm 2 m/s 746 mmHg 68%
    11:00 +31°C° 0,6 mm 2 m/s 745 mmHg 68%
    12:00 +31°C° 0,6 mm 2 m/s 744 mmHg 68%
    13:00 +31°C° 0,6 mm 2 m/s 744 mmHg 68%
    14:00 +31°C° 0,4 mm 2 m/s 743 mmHg 69%
    15:00 +31°C° 0,4 mm 1 m/s 743 mmHg 70%
    16:00 +31°C° 0,4 mm 1 m/s 743 mmHg 71%
    17:00 +29°C° 0 mm 1 m/s 743 mmHg 76%
    18:00 +28°C° 0 mm 1 m/s 744 mmHg 82%
    19:00 +27°C° 0 mm 1 m/s 744 mmHg 87%
    20:00 +27°C° 0 mm 1 m/s 744 mmHg 87%
    21:00 +26°C° 0 mm 1 m/s 744 mmHg 87%
    22:00 +26°C° 0 mm 1 m/s 745 mmHg 87%
    23:00 +26°C° 0 mm 1 m/s 744 mmHg 86%
    Arată mai mult